EN

Hourly Weather Alpirsbach

Today, 21 January, Thursday

Time Temperature Precipitation Wind Pressure Humidity
00:00 +1°C° 0 mm 2 mps 697 mmHg 79%
01:00 -1°C° 0 mm 4 mps 697 mmHg 79%
02:00 -1°C° 0 mm 4 mps 697 mmHg 78%
03:00 0°C° 0 mm 4 mps 697 mmHg 77%
04:00 +1°C° 0 mm 3 mps 697 mmHg 76%
05:00 0°C° 0 mm 4 mps 697 mmHg 76%
06:00 0°C° 0 mm 4 mps 697 mmHg 76%
07:00 0°C° 0 mm 5 mps 696 mmHg 77%
08:00 +1°C° 0 mm 5 mps 696 mmHg 79%
09:00 +2°C° 0 mm 6 mps 696 mmHg 81%
10:00 +2°C° 0 mm 7 mps 696 mmHg 83%
11:00 +3°C° 0 mm 7 mps 697 mmHg 85%
12:00 +3°C° 0 mm 7 mps 697 mmHg 88%
13:00 +3°C° 0 mm 7 mps 697 mmHg 90%
14:00 +3°C° 0.3 mm 6 mps 697 mmHg 92%
15:00 +3°C° 0.3 mm 5 mps 697 mmHg 94%
16:00 +3°C° 0.3 mm 4 mps 696 mmHg 96%
17:00 +3°C° 0.3 mm 4 mps 696 mmHg 95%
18:00 +3°C° 0.3 mm 4 mps 696 mmHg 93%
19:00 +3°C° 0.3 mm 4 mps 695 mmHg 92%
20:00 +3°C° 0.4 mm 4 mps 695 mmHg 91%
21:00 +3°C° 0.4 mm 4 mps 694 mmHg 91%
22:00 +1°C° 0.4 mm 4 mps 694 mmHg 90%
23:00 +2°C° 1.3 mm 5 mps 694 mmHg 91%

Tomorrow, 22 January, Friday

Time Temperature Precipitation Wind Pressure Humidity
00:00 +2°C° 1.3 mm 5 mps 694 mmHg 92%
01:00 +2°C° 1.3 mm 5 mps 694 mmHg 93%
02:00 +2°C° 0.7 mm 6 mps 694 mmHg 92%
03:00 +2°C° 0.7 mm 6 mps 693 mmHg 91%
04:00 +2°C° 0.7 mm 6 mps 693 mmHg 90%
05:00 +2°C° 0 mm 6 mps 693 mmHg 89%
06:00 +2°C° 0 mm 6 mps 692 mmHg 88%
07:00 +2°C° 0 mm 6 mps 692 mmHg 87%
08:00 +2°C° 0 mm 6 mps 692 mmHg 88%
09:00 +2°C° 0 mm 6 mps 692 mmHg 89%
10:00 +3°C° 0 mm 6 mps 692 mmHg 90%
11:00 +3°C° 0 mm 5 mps 692 mmHg 89%
12:00 +5°C° 0 mm 4 mps 691 mmHg 88%
13:00 +7°C° 0 mm 2 mps 691 mmHg 87%
14:00 +6°C° 0 mm 2 mps 691 mmHg 89%
15:00 +5°C° 0 mm 2 mps 690 mmHg 91%
16:00 +4°C° 0 mm 2 mps 690 mmHg 93%
17:00 +5°C° 0.1 mm 1 mps 690 mmHg 94%
18:00 +4°C° 0.1 mm 1 mps 690 mmHg 94%
19:00 +4°C° 0.1 mm 1 mps 690 mmHg 95%
20:00 +4°C° 0.3 mm 1 mps 690 mmHg 96%
21:00 +3°C° 0.3 mm 1 mps 690 mmHg 96%
22:00 +3°C° 0.3 mm 1 mps 691 mmHg 97%
23:00 +2°C° 1.2 mm 2 mps 691 mmHg 97%

Day after tomorrow, 23 January, Saturday

Time Temperature Precipitation Wind Pressure Humidity
00:00 0°C° 1.2 mm 3 mps 691 mmHg 97%
01:00 -1°C° 1.2 mm 3 mps 692 mmHg 98%
02:00 -1°C° 0.7 mm 3 mps 692 mmHg 97%
03:00 -1°C° 0.7 mm 3 mps 693 mmHg 97%
04:00 -1°C° 0.7 mm 3 mps 693 mmHg 97%
05:00 -1°C° 0.1 mm 3 mps 694 mmHg 96%
06:00 -1°C° 0.1 mm 3 mps 694 mmHg 96%
07:00 -1°C° 0.1 mm 2 mps 694 mmHg 95%
08:00 -1°C° 0 mm 2 mps 694 mmHg 94%
09:00 -1°C° 0 mm 2 mps 694 mmHg 92%
10:00 -1°C° 0 mm 2 mps 694 mmHg 91%
11:00 +1°C° 0 mm 2 mps 694 mmHg 90%
12:00 +2°C° 0 mm 2 mps 694 mmHg 89%
13:00 +2°C° 0 mm 2 mps 694 mmHg 87%
14:00 +2°C° 0 mm 2 mps 693 mmHg 88%
15:00 +3°C° 0 mm 1 mps 693 mmHg 89%
16:00 +1°C° 0 mm 0 mps 693 mmHg 90%
17:00 +1°C° 0 mm 1 mps 693 mmHg 91%
18:00 0°C° 0 mm 1 mps 693 mmHg 92%
19:00 -1°C° 0 mm 1 mps 692 mmHg 93%
20:00 -1°C° 0 mm 1 mps 692 mmHg 92%
21:00 -1°C° 0 mm 1 mps 692 mmHg 92%
22:00 -2°C° 0 mm 1 mps 692 mmHg 92%
23:00 -1°C° 0 mm 1 mps 692 mmHg 92%

24 January, Sunday

Time Temperature Precipitation Wind Pressure Humidity
00:00 -1°C° 0 mm 1 mps 693 mmHg 93%
01:00 -3°C° 0 mm 2 mps 693 mmHg 94%
02:00 -4°C° 0.7 mm 3 mps 693 mmHg 94%
03:00 -3°C° 0.7 mm 4 mps 693 mmHg 95%
04:00 -4°C° 0.7 mm 5 mps 693 mmHg 96%
05:00 -5°C° 0.8 mm 5 mps 694 mmHg 96%
06:00 -4°C° 0.8 mm 4 mps 695 mmHg 96%
07:00 -4°C° 0.8 mm 3 mps 695 mmHg 95%
08:00 -4°C° 0.2 mm 3 mps 696 mmHg 94%
09:00 -4°C° 0.2 mm 3 mps 696 mmHg 92%
10:00 -4°C° 0.2 mm 3 mps 697 mmHg 91%
11:00 -2°C° 0 mm 3 mps 696 mmHg 88%
12:00 -2°C° 0 mm 3 mps 696 mmHg 85%
13:00 -1°C° 0 mm 2 mps 696 mmHg 82%
14:00 -1°C° 0 mm 2 mps 696 mmHg 84%
15:00 +1°C° 0 mm 1 mps 696 mmHg 85%
16:00 0°C° 0 mm 1 mps 695 mmHg 87%
17:00 0°C° 0 mm 1 mps 695 mmHg 88%
18:00 -1°C° 0 mm 1 mps 695 mmHg 89%
19:00 -1°C° 0 mm 1 mps 696 mmHg 90%
20:00 -1°C° 0.3 mm 1 mps 695 mmHg 92%
21:00 -3°C° 0.3 mm 2 mps 695 mmHg 94%
22:00 -3°C° 0.3 mm 2 mps 695 mmHg 95%
23:00 -3°C° 0.5 mm 2 mps 696 mmHg 95%

25 January, Monday

Time Temperature Precipitation Wind Pressure Humidity
00:00 -4°C° 0.5 mm 3 mps 696 mmHg 95%
01:00 -4°C° 0.5 mm 3 mps 696 mmHg 96%
02:00 -4°C° 0.2 mm 3 mps 696 mmHg 96%
03:00 -4°C° 0.2 mm 2 mps 697 mmHg 96%
04:00 -4°C° 0.2 mm 2 mps 697 mmHg 96%
05:00 -4°C° 0.3 mm 2 mps 698 mmHg 96%
06:00 -4°C° 0.3 mm 2 mps 698 mmHg 96%
07:00 -4°C° 0.3 mm 2 mps 699 mmHg 96%
08:00 -4°C° 0.3 mm 2 mps 700 mmHg 95%
09:00 -5°C° 0.3 mm 3 mps 701 mmHg 94%
10:00 -4°C° 0.3 mm 4 mps 702 mmHg 93%
11:00 -4°C° 0.1 mm 4 mps 702 mmHg 91%
12:00 -5°C° 0.1 mm 5 mps 702 mmHg 90%
13:00 -4°C° 0.1 mm 5 mps 703 mmHg 88%
14:00 -5°C° 0.2 mm 5 mps 703 mmHg 90%
15:00 -5°C° 0.2 mm 5 mps 703 mmHg 91%
16:00 -5°C° 0.2 mm 5 mps 703 mmHg 93%
17:00 -5°C° 0.8 mm 5 mps 703 mmHg 94%
18:00 -5°C° 0.8 mm 5 mps 703 mmHg 95%
19:00 -5°C° 0.8 mm 5 mps 703 mmHg 96%
20:00 -5°C° 0.7 mm 5 mps 704 mmHg 96%
21:00 -5°C° 0.7 mm 5 mps 704 mmHg 96%
22:00 -4°C° 0.7 mm 4 mps 705 mmHg 96%
23:00 -4°C° 0.4 mm 4 mps 705 mmHg 96%

26 January, Tuesday

Time Temperature Precipitation Wind Pressure Humidity
00:00 -4°C° 0.4 mm 4 mps 705 mmHg 96%
01:00 -4°C° 0.4 mm 4 mps 705 mmHg 96%
02:00 -4°C° 0.4 mm 4 mps 706 mmHg 95%
03:00 -5°C° 0.4 mm 5 mps 706 mmHg 95%
04:00 -5°C° 0.4 mm 5 mps 706 mmHg 94%
05:00 -5°C° 0.3 mm 5 mps 706 mmHg 94%
06:00 -5°C° 0.3 mm 5 mps 706 mmHg 94%
07:00 -5°C° 0.3 mm 5 mps 707 mmHg 94%
08:00 -5°C° 0.2 mm 5 mps 707 mmHg 93%
09:00 -4°C° 0.2 mm 4 mps 707 mmHg 93%
10:00 -3°C° 0.2 mm 4 mps 708 mmHg 93%
11:00 -3°C° 0.1 mm 4 mps 708 mmHg 92%
12:00 -2°C° 0.1 mm 4 mps 708 mmHg 92%
13:00 -2°C° 0.1 mm 4 mps 708 mmHg 91%
14:00 -2°C° 0.1 mm 4 mps 708 mmHg 91%
15:00 -1°C° 0.1 mm 3 mps 708 mmHg 91%
16:00 -1°C° 0.1 mm 3 mps 708 mmHg 91%
17:00 -2°C° 0 mm 3 mps 708 mmHg 91%
18:00 -2°C° 0 mm 3 mps 708 mmHg 92%
19:00 -3°C° 0 mm 2 mps 708 mmHg 92%
20:00 -2°C° 0.2 mm 3 mps 707 mmHg 93%
21:00 -2°C° 0.2 mm 3 mps 707 mmHg 95%
22:00 -3°C° 0.2 mm 4 mps 707 mmHg 96%
23:00 -3°C° 0.5 mm 4 mps 706 mmHg 96%
Show more